User: anonymous   Login
Location: Unspecified
(0.0000°N, 0.0000°E)
Time: 09:15:39
(UTC+00:00)
Language:

AAUSAT 4 - Orbit

View from above orbital plane
View from above orbital plane
View from above satellite
View from above satellite

Ground track
Ground track

The orbit data is extracted from the following two-line orbital elements,

1 41460U 16025E   21017.08498181  .00004857  00000-0  23269-3 0  9998
2 41460  98.1206 147.7343 0150339 198.3357 161.2404 15.09979471259869
Epoch (UTC): 17 January 2021 02:02:22
Eccentricity: 0.0150339
inclination: 98.1206°
perigee height: 432 km
apogee height: 640 km
right ascension of ascending node: 147.7343°
argument of perigee: 198.3357°
revolutions per day: 15.09979471
mean anomaly at epoch: 161.2404°
orbit number at epoch: 25986

The dashed part of the orbit path shows where the satellite is in the earth's shadow,  

DLR